DW7281 Weather Reports


time (UTC)temp
F
wind
direction
speed
knots
gust
knots
rain 1hr
in
rain 24hr
in
rain mn
in
humidity
%
barometer
mb
20260503203056 59 0 2.6 10.4 0.00 0.00 0.00 91 1022.6
20260503201551 59 352 1.7 9.6 0.00 0.00 0.00 91 1022.3
20260503200055 59 10 2.6 8.7 0.00 0.00 0.00 91 1022.0
20260503194556 59 28 2.6 11.3 0.00 0.00 0.00 91 1021.9
20260503193047 59 61 1.7 10.4 0.00 0.00 0.00 91 1021.9
20260503191552 59 5 1.7 7.0 0.00 0.00 0.00 91 1021.8
20260503190047 59 29 0.9 7.8 0.00 0.00 0.00 91 1021.6
20260503184546 59 57 2.6 9.6 0.00 0.00 0.00 91 1021.6
20260503183049 59 30 2.6 9.6 0.00 0.00 0.00 90 1021.5
20260503181549 59 16 1.7 7.0 0.00 0.00 0.00 90 1021.6
20260503180056 59 28 0.9 9.6 0.00 0.00 0.00 90 1021.8
20260503174559 58 36 3.5 9.6 0.00 0.00 0.00 90 1021.9
20260503173054 59 17 2.6 7.8 0.00 0.00 0.00 90 1021.9
20260503171549 58 19 1.7 8.7 0.00 0.00 0.00 91 1022.1
20260503081549 64 44 0.9 7.0 0.00 0.08 0.00 76 1023.5
20260503071609 66 36 0.9 5.2 0.00 0.08 0.00 72 1023.0
20260503060108 70 41 2.6 10.4 0.00 0.08 0.00 61 1022.9
20260503054555 71 0 0.0 9.6 0.00 0.08 0.00 62 1022.8
20260503053045 70 0 2.6 9.6 0.00 0.08 0.00 63 1023.0
20260503051549 70 0 0.9 8.7 0.00 0.08 0.00 62 1022.9
20260503050051 71 0 0.0 10.4 0.00 0.08 0.00 63 1022.8
20260503044545 70 0 0.9 9.6 0.00 0.08 0.00 64 1022.8
20260503043045 71 348 0.9 11.3 0.00 0.08 0.00 63 1022.8
20260503041549 70 17 3.5 11.3 0.00 0.08 0.00 64 1022.9
20260503040058 70 33 3.5 11.3 0.00 0.08 0.00 63 1022.9
20260503034548 71 9 3.5 11.3 0.00 0.08 0.00 64 1023.0
20260503033047 70 9 5.2 13.0 0.00 0.08 0.00 65 1022.9
20260503031557 70 49 3.5 12.2 0.00 0.08 0.00 62 1023.3
20260503030050 69 38 3.5 13.9 0.00 0.08 0.00 64 1023.7
20260503024545 69 352 3.5 13.9 0.00 0.08 0.00 66 1023.8
20260503023055 69 51 3.5 12.2 0.00 0.08 0.00 68 1023.9
20260503021550 68 0 5.2 14.8 0.00 0.08 0.00 69 1023.9
20260503020045 67 9 4.3 19.1 0.00 0.08 0.00 71 1024.3
20260503014605 67 24 5.2 13.9 0.00 0.08 0.00 72 1024.5
20260503013047 67 17 1.7 13.0 0.00 0.08 0.00 75 1024.7
20260503011550 66 19 2.6 16.5 0.00 0.08 0.00 77 1024.7
20260503010043 65 352 4.3 15.6 0.00 0.08 0.00 78 1025.2
20260503004604 65 34 4.3 14.8 0.00 0.08 0.00 80 1025.6
20260503003048 64 51 3.5 14.8 0.00 0.08 0.00 80 1025.7
20260503001557 64 26 5.2 16.5 0.00 0.08 0.00 80 1025.8
20260503000047 64 56 4.3 14.8 0.00 0.08 0.00 80 1025.8
20260502234547 64 28 4.3 13.0 0.00 0.07 0.00 79 1025.8
20260502233049 62 32 5.2 13.0 0.00 0.07 0.00 81 1025.8
20260502231549 63 73 2.6 13.9 0.00 0.07 0.00 81 1025.8
20260502230050 61 0 4.3 11.3 0.00 0.07 0.00 81 1025.9
20260502224548 61 0 4.3 11.3 0.00 0.07 0.00 81 1025.9
20260502223047 61 38 4.3 11.3 0.00 0.07 0.00 81 1025.7
20260502221544 60 57 2.6 10.4 0.00 0.07 0.00 82 1025.5
20260502220053 60 27 5.2 8.7 0.00 0.07 0.00 81 1025.5
20260502214550 58 30 3.5 11.3 0.00 0.07 0.00 82 1025.3
20260502213047 58 14 2.6 10.4 0.00 0.07 0.00 83 1024.9
20260502211544 57 30 2.6 8.7 0.00 0.07 0.00 84 1024.8
20260502204552 56 36 2.6 7.0 0.00 0.09 0.00 87 1024.6